This demonstration page uses our WeatherBlox Daily Observations layout. Learn more.

Hourly Observations for August 23, 2015

Temp ( °F °C ) Dew Point ( °F °C ) Humidity (%) Winds ( mph kmh ) Pressure ( in mb ) Visibility ( mi km ) Precip ( " mm )
12:15 am 00:15 Clear 59 15 45 7 59 59 N 15 24 30.09 1019 10 16.09344 0 0
12:35 am 00:35 Clear 59 15 45 7 59 59 N 16 26 30.09 1019 10 16.09344 0 0
12:55 am 00:55 Clear 59 15 43 6 55 55 N 15 24 30.09 1019 10 16.09344 0 0
1:15 am 01:15 Clear 57 14 43 6 59 59 N 12 19 30.09 1019 10 16.09344 0 0
1:35 am 01:35 Clear 57 14 43 6 59 59 N 9 15 30.09 1019 10 16.09344 0 0
1:55 am 01:55 Clear 57 14 43 6 59 59 N 9 15 30.09 1019 10 16.09344 0 0
2:15 am 02:15 Clear 55 13 41 5 59 59 N 7 11 30.15 1021 10 16.09344 0 0
2:35 am 02:35 Clear 55 13 41 5 59 59 N 8 13 30.15 1021 10 16.09344 0 0
2:55 am 02:55 Clear 54 12 41 5 63 63 NNW 9 15 30.15 1021 10 16.09344 0 0
3:15 am 03:15 Clear 54 12 41 5 63 63 NNW 12 19 30.15 1021 10 16.09344 0 0
3:35 am 03:35 Clear 54 12 41 5 63 63 NNW 10 17 30.15 1021 10 16.09344 0 0
3:55 am 03:55 Clear 54 12 39 4 58 58 NNW 12 19 30.15 1021 10 16.09344 0 0
4:15 am 04:15 Clear 54 12 39 4 58 58 NW 7 11 30.15 1021 10 16.09344 0 0
4:35 am 04:35 Clear 52 11 41 5 67 67 NW 7 11 30.15 1021 10 16.09344 0 0
4:55 am 04:55 Clear 52 11 41 5 67 67 WNW 3 6 30.15 1021 10 16.09344 0 0
5:15 am 05:15 Clear 50 10 41 5 71 71 W 6 9 30.18 1022 10 16.09344 0 0
5:35 am 05:35 Clear 50 10 41 5 71 71 W 6 9 30.21 1023 10 16.09344 0 0
5:55 am 05:55 Clear 50 10 41 5 71 71 WNW 6 9 30.21 1023 10 16.09344 0 0
6:15 am 06:15 Clear 48 9 41 5 76 76 NW 8 13 30.18 1022 10 16.09344 0 0
6:35 am 06:35 Clear 48 9 41 5 76 76 NW 6 9 30.21 1023 10 16.09344 0 0
6:55 am 06:55 Clear 48 9 41 5 76 76 NW 3 6 30.21 1023 10 16.09344 0 0
7:15 am 07:15 Sunny 46 8 41 5 82 82 Calm 30.24 1024 10 16.09344 0 0
7:35 am 07:35 Sunny 48 9 41 5 76 76 WSW 3 6 30.24 1024 10 16.09344 0 0
7:55 am 07:55 Sunny 50 10 41 5 71 71 W 3 6 30.24 1024 10 16.09344 0 0
8:15 am 08:15 Sunny 50 10 43 6 76 76 W 5 7 30.24 1024 10 16.09344 0 0
8:35 am 08:35 Sunny 52 11 41 5 67 67 WNW 5 7 30.27 1025 10 16.09344 0 0
8:55 am 08:55 Sunny 54 12 43 6 67 67 NW 5 7 30.24 1024 10 16.09344 0 0
9:15 am 09:15 Sunny 55 13 43 6 63 63 NNW 7 11 30.24 1024 10 16.09344 0 0
9:35 am 09:35 Sunny 57 14 41 5 55 55 NW 9 15 30.24 1024 10 16.09344 0 0
9:55 am 09:55 Sunny 59 15 41 5 51 51 NNW 9 15 30.21 1023 10 16.09344 0 0
10:15 am 10:15 Sunny 59 15 41 5 51 51 NNW 13 20 30.21 1023 10 16.09344 0 0
10:35 am 10:35 Sunny 61 16 41 5 48 48 N 14 22 30.21 1023 10 16.09344 0 0
10:55 am 10:55 Sunny 61 16 39 4 45 45 NNW 10 17 30.21 1023 10 16.09344 0 0
11:15 am 11:15 Sunny 63 17 39 4 42 42 NNW 9 15 30.21 1023 10 16.09344 0 0
11:35 am 11:35 Sunny 63 17 41 5 45 45 N 12 19 30.21 1023 10 16.09344 0 0
11:55 am 11:55 Sunny 63 17 39 4 42 42 NNW 10 17 30.21 1023 10 16.09344 0 0
12:15 pm 12:15 Sunny 63 17 39 4 42 42 N 9 15 30.21 1023 10 16.09344 0 0
12:35 pm 12:35 Sunny 64 18 41 5 43 43 NW 7 11 30.21 1023 10 16.09344 0 0
12:55 pm 12:55 Sunny 66 19 39 4 37 37 NW 12 19 30.18 1022 10 16.09344 0 0
1:15 pm 13:15 Sunny 66 19 39 4 37 37 NW 12 19 30.18 1022 10 16.09344 0 0
1:35 pm 13:35 Sunny 66 19 39 4 37 37 N 9 15 30.15 1021 10 16.09344 0 0
1:55 pm 13:55 Sunny 66 19 39 4 37 37 NW 9 15 30.15 1021 10 16.09344 0 0
2:15 pm 14:15 Sunny 68 20 41 5 38 38 NW 13 20 30.15 1021 10 16.09344 0 0
2:35 pm 14:35 Sunny 68 20 41 5 38 38 NW 12 19 30.15 1021 10 16.09344 0 0
2:55 pm 14:55 Sunny 68 20 39 4 35 35 NNW 6 9 30.15 1021 10 16.09344 0 0
3:15 pm 15:15 Sunny 68 20 39 4 35 35 WNW 9 15 30.15 1021 10 16.09344 0 0
3:35 pm 15:35 Sunny 68 20 41 5 38 38 NNW 5 7 30.12 1020 10 16.09344 0 0
3:55 pm 15:55 Sunny 70 21 41 5 35 35 NW 5 7 30.12 1020 10 16.09344 0 0
4:15 pm 16:15 Sunny 70 21 41 5 35 35 N 3 6 30.12 1020 10 16.09344 0 0
4:35 pm 16:35 Sunny 70 21 39 4 33 33 W 3 6 30.12 1020 10 16.09344 0 0
4:55 pm 16:55 Sunny 70 21 41 5 35 35 W 7 11 30.12 1020 10 16.09344 0 0
5:15 pm 17:15 Sunny 72 22 39 4 31 31 WNW 3 6 30.06 1018 10 16.09344 0 0
5:35 pm 17:35 Sunny 72 22 41 5 33 33 Calm 30.06 1018 10 16.09344 0 0
5:55 pm 17:55 Sunny 70 21 41 5 35 35 NNW 3 6 30.06 1018 10 16.09344 0 0
6:15 pm 18:15 Sunny 70 21 43 6 38 38 Calm 30.06 1018 10 16.09344 0 0
6:35 pm 18:35 Sunny 70 21 43 6 38 38 Calm 30.06 1018 10 16.09344 0 0
6:55 pm 18:55 Sunny 70 21 45 7 40 40 Calm 30.06 1018 10 16.09344 0 0
7:15 pm 19:15 Sunny 70 21 45 7 40 40 Calm 30.06 1018 10 16.09344 0 0
9:55 pm 21:55 Clear 59 15 50 10 72 72 Calm 30.12 1020 10 16.09344 0 0
10:15 pm 22:15 Clear 59 15 50 10 72 72 SSW 3 6 30.12 1020 10 16.09344 0 0
10:35 pm 22:35 Clear 59 15 48 9 68 68 SW 3 6 30.12 1020 10 16.09344 0 0
10:55 pm 22:55 Clear 57 14 48 9 72 72 Calm 30.12 1020 10 16.09344 0 0
11:15 pm 23:15 Clear 55 13 48 9 77 77 SSW 5 7 30.15 1021 10 16.09344 0 0
11:35 pm 23:35 Clear 57 14 46 8 67 67 SW 3 6 30.18 1022 10 16.09344 0 0
11:55 pm 23:55 Clear 57 14 46 8 67 67 SSW 3 6 30.18 1022 10 16.09344 0 0

Powered by AerisWeather